Find Starlink 5901

NORAD ID: 55999 Int'l Des: 2023-042 Owner: SPXS Country: US Constellation: starlink operational
LEOCIRCULAR

当前视图

正在加载3D地球...

About Starlink 5901

Starlink 5901 (NORAD 55999) is a starlink constellation satellite (v1.5) launched Mar 24, 2023 by SPXS of US. It operates in LEO, CIRCULAR orbit with a mass of 305.00 kg.

关于 Starlink 5901

正在加载描述...

即将过境

Passes for default location (London). Set your location on the main map for personalized predictions.

高度历史

Loading altitude history...

两行轨道根数

1 55999U 23042P 26167.46258139 .00000398 00000-0 24005-4 0 9993
2 55999 43.0020 221.9474 0001240 284.4549 75.6165 15.27577034177972
Epoch: Jun 16, 2026 • Age: 45 hours

当前状态

高度 495.3 km
速度 7.62 km/s
星下点 -42.41°S, 103.88°E
发射日期 Mar 24, 2023
运行时间 3.2 years
类型 internet

技术详情

分类 Payload
质量 305.00 kg
干质量 290.00 kg
总质量 305.00 kg
长度 0.20 m
直径 2.80 m
跨度 9.00 m
形状 Box + pan
制造商 SPXS
平台类型 Starlink
阶段状态 In Orbit
所有者/国家 SPXS/US

Most Searched